Meteo pe oră la Bolshie Filipkovichi

Astăzi, 9 Mai, Duminică

Timp Temperatura Precipitaţii Vânt Presiune Umiditate
00:00 +1°C° 0 mm 3 m/s 748 mmHg 80%
01:00 +1°C° 0 mm 3 m/s 749 mmHg 84%
02:00 0°C° 0 mm 3 m/s 749 mmHg 88%
03:00 0°C° 0 mm 3 m/s 749 mmHg 89%
04:00 0°C° 0 mm 3 m/s 750 mmHg 91%
05:00 0°C° 0 mm 3 m/s 750 mmHg 93%
06:00 +2°C° 0 mm 3 m/s 751 mmHg 81%
07:00 +4°C° 0 mm 4 m/s 752 mmHg 69%
08:00 +6°C° 0 mm 4 m/s 752 mmHg 57%
09:00 +7°C° 0 mm 4 m/s 752 mmHg 52%
10:00 +8°C° 0 mm 4 m/s 752 mmHg 47%
11:00 +10°C° 0 mm 4 m/s 753 mmHg 41%
12:00 +11°C° 0 mm 4 m/s 753 mmHg 40%
13:00 +11°C° 0 mm 4 m/s 753 mmHg 38%
14:00 +12°C° 0 mm 4 m/s 753 mmHg 37%
15:00 +12°C° 0 mm 3 m/s 753 mmHg 38%
16:00 +12°C° 0 mm 3 m/s 753 mmHg 40%
17:00 +13°C° 0 mm 2 m/s 754 mmHg 41%
18:00 +10°C° 0 mm 2 m/s 754 mmHg 46%
19:00 +9°C° 0 mm 1 m/s 754 mmHg 52%
20:00 +7°C° 0 mm 1 m/s 755 mmHg 57%
21:00 +7°C° 0 mm 1 m/s 755 mmHg 59%
22:00 +5°C° 0 mm 2 m/s 755 mmHg 61%
23:00 +5°C° 0 mm 2 m/s 756 mmHg 63%

Mâine, 10 Mai, Luni

Timp Temperatura Precipitaţii Vânt Presiune Umiditate
00:00 +4°C° 0 mm 2 m/s 756 mmHg 64%
01:00 +4°C° 0 mm 2 m/s 756 mmHg 65%
02:00 +3°C° 0 mm 2 m/s 756 mmHg 67%
03:00 +3°C° 0 mm 2 m/s 756 mmHg 68%
04:00 +3°C° 0 mm 2 m/s 756 mmHg 69%
05:00 +3°C° 0 mm 2 m/s 756 mmHg 69%
06:00 +6°C° 0 mm 2 m/s 757 mmHg 65%
07:00 +8°C° 0 mm 3 m/s 757 mmHg 60%
08:00 +10°C° 0 mm 3 m/s 757 mmHg 56%
09:00 +11°C° 0 mm 3 m/s 757 mmHg 53%
10:00 +13°C° 0 mm 3 m/s 757 mmHg 50%
11:00 +14°C° 0 mm 3 m/s 757 mmHg 47%
12:00 +16°C° 0 mm 3 m/s 757 mmHg 46%
13:00 +16°C° 0 mm 3 m/s 757 mmHg 45%
14:00 +17°C° 0 mm 3 m/s 756 mmHg 43%
15:00 +17°C° 0 mm 3 m/s 756 mmHg 45%
16:00 +17°C° 0 mm 2 m/s 756 mmHg 47%
17:00 +17°C° 0 mm 2 m/s 756 mmHg 49%
18:00 +15°C° 0 mm 2 m/s 756 mmHg 55%
19:00 +12°C° 0 mm 3 m/s 756 mmHg 61%
20:00 +10°C° 0 mm 3 m/s 756 mmHg 67%
21:00 +9°C° 0 mm 3 m/s 756 mmHg 67%
22:00 +8°C° 0 mm 3 m/s 756 mmHg 67%
23:00 +7°C° 0 mm 2 m/s 756 mmHg 67%

Poimâine, 11 Mai, Marţi

Timp Temperatura Precipitaţii Vânt Presiune Umiditate
00:00 +7°C° 0 mm 2 m/s 756 mmHg 68%
01:00 +6°C° 0 mm 2 m/s 756 mmHg 69%
02:00 +6°C° 0 mm 2 m/s 756 mmHg 71%
03:00 +6°C° 0 mm 2 m/s 756 mmHg 73%
04:00 +5°C° 0 mm 2 m/s 756 mmHg 75%
05:00 +5°C° 0 mm 2 m/s 756 mmHg 77%
06:00 +7°C° 0 mm 3 m/s 756 mmHg 71%
07:00 +9°C° 0 mm 3 m/s 756 mmHg 64%
08:00 +11°C° 0 mm 3 m/s 756 mmHg 57%
09:00 +13°C° 0 mm 3 m/s 756 mmHg 53%
10:00 +14°C° 0 mm 3 m/s 755 mmHg 49%
11:00 +17°C° 0 mm 4 m/s 755 mmHg 45%
12:00 +18°C° 0 mm 3 m/s 754 mmHg 46%
13:00 +19°C° 0 mm 3 m/s 754 mmHg 47%
14:00 +20°C° 0 mm 3 m/s 754 mmHg 48%
15:00 +19°C° 0 mm 4 m/s 754 mmHg 52%
16:00 +19°C° 0 mm 4 m/s 753 mmHg 56%
17:00 +19°C° 0 mm 4 m/s 753 mmHg 60%
18:00 +18°C° 0 mm 4 m/s 753 mmHg 69%
19:00 +16°C° 0 mm 3 m/s 753 mmHg 77%
20:00 +13°C° 0 mm 3 m/s 753 mmHg 85%
21:00 +12°C° 0 mm 3 m/s 753 mmHg 88%
22:00 +12°C° 0 mm 3 m/s 753 mmHg 91%
23:00 +11°C° 0 mm 3 m/s 752 mmHg 94%

12 Mai, Miercuri

Timp Temperatura Precipitaţii Vânt Presiune Umiditate
00:00 +11°C° 0 mm 3 m/s 752 mmHg 95%
01:00 +10°C° 0 mm 3 m/s 752 mmHg 95%
02:00 +10°C° 0 mm 3 m/s 752 mmHg 96%
03:00 +9°C° 0 mm 3 m/s 752 mmHg 95%
04:00 +7°C° 0 mm 4 m/s 752 mmHg 94%
05:00 +7°C° 0 mm 4 m/s 752 mmHg 93%
06:00 +8°C° 0 mm 4 m/s 752 mmHg 85%
07:00 +9°C° 0 mm 5 m/s 752 mmHg 78%
08:00 +10°C° 0 mm 5 m/s 752 mmHg 70%
09:00 +10°C° 0 mm 5 m/s 752 mmHg 67%
10:00 +12°C° 0 mm 5 m/s 752 mmHg 65%
11:00 +13°C° 0 mm 5 m/s 751 mmHg 63%
12:00 +13°C° 0 mm 5 m/s 751 mmHg 62%
13:00 +14°C° 0 mm 5 m/s 750 mmHg 61%
14:00 +14°C° 0 mm 4 m/s 750 mmHg 60%
15:00 +14°C° 0.2 mm 5 m/s 749 mmHg 63%
16:00 +14°C° 0.2 mm 5 m/s 749 mmHg 66%
17:00 +14°C° 0.2 mm 5 m/s 748 mmHg 69%
18:00 +12°C° 0.3 mm 5 m/s 748 mmHg 76%
19:00 +10°C° 0.3 mm 5 m/s 748 mmHg 82%
20:00 +9°C° 0.3 mm 5 m/s 747 mmHg 88%
21:00 +8°C° 0 mm 4 m/s 747 mmHg 90%
22:00 +8°C° 0 mm 3 m/s 747 mmHg 93%
23:00 +8°C° 0 mm 3 m/s 746 mmHg 95%

13 Mai, Joi

Timp Temperatura Precipitaţii Vânt Presiune Umiditate
00:00 +8°C° 0.2 mm 3 m/s 746 mmHg 95%
01:00 +8°C° 0.2 mm 3 m/s 745 mmHg 94%
02:00 +8°C° 0.2 mm 3 m/s 745 mmHg 93%
03:00 +8°C° 0.2 mm 3 m/s 745 mmHg 94%
04:00 +7°C° 0.2 mm 3 m/s 745 mmHg 95%
05:00 +7°C° 0.2 mm 3 m/s 745 mmHg 96%
06:00 +7°C° 0.1 mm 4 m/s 745 mmHg 94%
07:00 +7°C° 0.1 mm 4 m/s 745 mmHg 91%
08:00 +7°C° 0.1 mm 5 m/s 746 mmHg 89%
09:00 +9°C° 0.1 mm 6 m/s 746 mmHg 81%
10:00 +10°C° 0.1 mm 6 m/s 746 mmHg 73%
11:00 +12°C° 0.1 mm 7 m/s 746 mmHg 65%
12:00 +11°C° 0.1 mm 6 m/s 746 mmHg 69%
13:00 +11°C° 0.1 mm 6 m/s 746 mmHg 73%
14:00 +10°C° 0.1 mm 6 m/s 746 mmHg 77%
15:00 +10°C° 0.2 mm 5 m/s 746 mmHg 81%
16:00 +10°C° 0.2 mm 4 m/s 746 mmHg 85%
17:00 +10°C° 0.2 mm 3 m/s 746 mmHg 90%
18:00 +10°C° 0.8 mm 3 m/s 746 mmHg 92%
19:00 +10°C° 0.8 mm 3 m/s 746 mmHg 95%
20:00 +10°C° 0.8 mm 3 m/s 745 mmHg 98%
21:00 +10°C° 0.5 mm 3 m/s 745 mmHg 98%
22:00 +10°C° 0.5 mm 3 m/s 745 mmHg 98%
23:00 +11°C° 0.5 mm 3 m/s 744 mmHg 98%

14 Mai, Vineri

Timp Temperatura Precipitaţii Vânt Presiune Umiditate
00:00 +12°C° 0.4 mm 2 m/s 744 mmHg 98%
01:00 +12°C° 0.4 mm 2 m/s 744 mmHg 98%
02:00 +12°C° 0.4 mm 2 m/s 743 mmHg 98%
03:00 +12°C° 0 mm 2 m/s 743 mmHg 98%
04:00 +12°C° 0 mm 2 m/s 743 mmHg 98%
05:00 +12°C° 0 mm 2 m/s 743 mmHg 98%
06:00 +13°C° 0 mm 2 m/s 743 mmHg 95%
07:00 +14°C° 0 mm 2 m/s 743 mmHg 93%
08:00 +14°C° 0 mm 2 m/s 743 mmHg 90%
09:00 +15°C° 0 mm 2 m/s 743 mmHg 86%
10:00 +16°C° 0 mm 3 m/s 743 mmHg 81%
11:00 +17°C° 0 mm 3 m/s 743 mmHg 76%
12:00 +18°C° 0.1 mm 3 m/s 743 mmHg 73%
13:00 +18°C° 0.1 mm 3 m/s 744 mmHg 70%
14:00 +19°C° 0.1 mm 3 m/s 744 mmHg 67%
15:00 +19°C° 0.3 mm 3 m/s 744 mmHg 69%
16:00 +19°C° 0.3 mm 3 m/s 744 mmHg 71%
17:00 +19°C° 0.3 mm 3 m/s 743 mmHg 74%
18:00 +17°C° 0.1 mm 2 m/s 744 mmHg 78%
19:00 +16°C° 0.1 mm 2 m/s 744 mmHg 83%
20:00 +14°C° 0.1 mm 2 m/s 744 mmHg 88%
21:00 +14°C° 0 mm 2 m/s 744 mmHg 89%
22:00 +13°C° 0 mm 2 m/s 744 mmHg 90%
23:00 +13°C° 0 mm 2 m/s 744 mmHg 92%
Arată mai mult

Formular de consimțământ

Meteoprog și furnizorii noștri de servicii pot stoca și accesa date personale, precum cookies, identificatori de dispozitiv sau alte tehnologii similare pe dispozitivul dumneavoastră și procesa astfel de date pentru a personaliza conținutul și reclamele, dar și pentru a oferi caracteristici de social media și pentru a analiza traficul.

  • Stocarea și/sau accesarea informațiilor pe dispozitivul dumneavoastră

    Cookies, identificatori de dispozitiv sau alte informații pot fi stocate sau accesate pe dispozitiv în scopurile indicate mai sus.

  • Reclame și conținut personalizat, evaluarea reclamelor și a conținutului, informații despre audiențe și dezvoltarea produselor

    Reclamele și conținutul pot fi personalizate pe baza unui profil. Pot fi adăugate date suplimentare pentru a personaliza mai bine reclamele și conținutul. Performanța reclamelor și conținutului poate fi măsurată. Pot fi obținute informații despre utilizatorii care au văzut reclamele și conținutul. Aceste date pot fi utilizate pentru a dezvolta sau îmbunătăți experiența utilizatorilor, sistemele și software-ul.

Dând clic pe ‘Sunt de acord’, permiteți utilizarea cookie-urilor menționate, a identificatorilor de dispozitiv, balizelor web sau altor tehnologii similare. Setările pot fi modificate din browser-ul dispozitivului dumneavoastră.

În anumite scopuri, interesele legitime pot prima asupra consimțământului. Puteți citi mai multe informații în acest sens în Politica privind Confidențialitatea Datelor și Cookie.